ESPAESNQ

Guest
Details From ESPA - Lulea Kallax
To ESNQ - Kiruna
Flight Number -
Tags Routegen Generated
Created
Modified
Stats Distance 145 nm / 268 km
Max Altitude 600 ft / 183 m
Waypoints 9
Social Downloads 3
Likes 0
Share

Download

Looking for another format? Having issues loading an existing format? Contact us
Advertisement - Login to hide

Notes

Departing runway 31 ESPA. Arriving runway 3 ESNQ.

Route

ESPA +65.61_+021.98 +65.66_+021.92 +66.40_+021.32 +67.59_+020.26 +67.64_+020.20 +67.70_+020.18 +67.75_+020.21 ESNQ

ID Type Via Altitude (ft/m) Position (lat/lon) Dist (leg/tot) Name
O ESPA APT - 0 / 0 65.55480 / 22.09741 - / 0 nm
+65.61_+021.98 LATLON - 600 / 183 65.60799 / 21.97871 4 / 4 nm
+65.66_+021.92 LATLON - 600 / 183 65.66141 / 21.92464 3 / 7 nm
+66.40_+021.32 LATLON - 600 / 183 66.39903 / 21.31756 46 / 54 nm
+67.59_+020.26 LATLON - 600 / 183 67.58669 / 20.26253 75 / 130 nm
+67.64_+020.20 LATLON - 600 / 183 67.63858 / 20.19515 3 / 133 nm
+67.70_+020.18 LATLON - 600 / 183 67.69612 / 20.17835 3 / 136 nm
+67.75_+020.21 LATLON - 600 / 183 67.75238 / 20.21437 3 / 140 nm
O ESNQ APT - 0 / 0 67.81265 / 20.32031 4 / 144 nm

Altitude Profile

Advertisement - Login to hide

ESPA

Details ICAO ESPA (LLA)
Name Lulea Kallax
Region Sweden
Timezone Europe/Stockholm (UTC+2.0)
Stats Elevation 64 ft / 20 m (AMSL)
Location 65.543800° 22.122000°
Runways 1
Magnetic Variation 9.962° E

METAR

ESPA 171120Z 16006KT 130V200 CAVOK 06/M00 Q1034

Decode

TAF

Not found

Departure Runways

ID Width Length Bearing (true/mag) Surface Threshold Overrun Markings Lighting
14 148 ft / 45 m 10,957 ft / 3,340 m 137.32° / 127.36° ASPHALT 0 ft / 0 m 200 ft / 61 m PREC-APP EDGE THRESHOLD CALVERT
32 148 ft / 45 m 10,957 ft / 3,340 m 317.36° / 307.40° ASPHALT 0 ft / 0 m 200 ft / 61 m PREC-APP EDGE THRESHOLD CALVERT

ESNQ

Details ICAO ESNQ (KRN)
Name Kiruna
Region Sweden
Timezone Europe/Stockholm (UTC+2.0)
Stats Elevation 1,507 ft / 459 m (AMSL)
Location 67.822000° 20.336800°
Runways 1
Magnetic Variation 9.777° E

METAR

ESNQ 171120Z AUTO 24004KT 9999 NCD 06/M05 Q1031

Decode

TAF

Not found

Destination Runways

ID Width Length Bearing (true/mag) Surface Threshold Overrun Markings Lighting
03 148 ft / 45 m 8,216 ft / 2,504 m 33.56° / 23.78° ASPHALT 0 ft / 0 m 0 ft / 0 m APP CENTERLINE EDGE THRESHOLD MALSF
21 148 ft / 45 m 8,216 ft / 2,504 m 213.59° / 203.81° ASPHALT 0 ft / 0 m 0 ft / 0 m APP CENTERLINE EDGE THRESHOLD MALSF

Approach Navaids

Runway Type Ident Frequency Range Bearing (true/mag) Slope Elevation
21 LOC-ILS NQ 110.30 MHz 18 nm / 33 km 213.59° / 203.81 ° - 1,508 ft / 460 m (AMSL)
21 GS NQ 110.30 MHz 10 nm / 19 km 214.29° / 204.51 ° 2.86° 1,508 ft / 460 m (AMSL)
21 OM OM - - 213.64° / 203.87 ° - 1,507 ft / 459 m (AMSL)
21 MM MM - - 213.64° / 203.87 ° - 1,508 ft / 460 m (AMSL)

Popular Alternatives